Find Starlink 37138

NORAD ID: 68308 Int'l Des: 2026-057 Owner: SPXS Country: US Constellation: starlink operational
LEOCIRCULARRETROGRADE

当前视图

正在加载3D地球...

About Starlink 37138

Starlink 37138 (NORAD 68308) is a starlink constellation satellite (v2 mini) launched Mar 20, 2026 by SPXS of US. It operates in LEO, CIRCULAR, RETROGRADE orbit with a mass of 575.00 kg.

关于 Starlink 37138

正在加载描述...

即将过境

Passes for default location (London). Set your location on the main map for personalized predictions.

高度历史

Loading altitude history...

两行轨道根数

1 68308U 26057Q 26170.62435963 .00015107 00000-0 41939-3 0 9992
2 68308 97.2865 297.2368 0000749 95.0974 265.0356 15.36990811 14279
Epoch: Jun 19, 2026 • Age: 14 hours

当前状态

高度 483.0 km
速度 7.62 km/s
星下点 -76.47°S, 108.4°E
发射日期 Mar 20, 2026
运行时间 0.2 years
类型 internet

技术详情

分类 Payload
质量 575.00 kg
干质量 530.00 kg
总质量 575.00 kg
长度 0.30 m
直径 4.10 m
跨度 29.00 m
形状 Box + pan
制造商 SPXS
平台类型 Starlink V2MO
阶段状态 In Orbit
所有者/国家 SPXS/US

Most Searched